Simultaneous Nadir Overpasses (SNOs) Predictions

Prediction of SNOs between METOP-C and LANDSAT-8 Satellite Orbit:

Table of predicted SNOs for the next 14.0 days since TLE Epoch: 6/26/2021
Index Date (METOP-C) Time (METOP-C) Lat,Lon (METOP-C) SZA (METOP-C ) Date (LANDSAT-8) Time (LANDSAT-8) Lat,Lon (LANDSAT-8) SZA (LANDSAT-8 ) Distance(km) Time Diff (sec)
1 06/27/2021 10:04:58 81.14, 68.66 59.92 06/27/2021 10:05:47 81.14, 68.83 59.96 2.81 49
2 06/27/2021 10:55:37 -81.17,-122.94 119.94 06/27/2021 10:55:12 -81.18,-122.90 119.95 0.91 25
3 06/30/2021 05:39:18 81.15, 135.55 60.12 06/30/2021 05:40:02 81.15, 135.52 60.13 0.42 44
4 06/30/2021 06:29:58 -81.18, -56.43 119.80 06/30/2021 06:29:28 -81.17, -56.54 119.83 2.01 30
5 07/03/2021 01:13:40 81.14,-158.34 60.26 07/03/2021 01:14:18 81.15,-158.18 60.30 2.84 38
6 07/03/2021 02:04:20 -81.17, 9.69 119.65 07/03/2021 02:03:44 -81.17, 9.78 119.66 1.69 36
7 07/05/2021 20:47:59 81.16, -91.50 60.56 07/05/2021 20:48:32 81.16, -91.54 60.57 0.83 33
8 07/05/2021 21:38:39 -81.18, 76.53 119.35 07/05/2021 21:37:58 -81.18, 76.45 119.38 1.43 41
9 07/08/2021 16:22:21 81.15, -25.42 60.81 07/08/2021 16:22:48 81.14, -25.31 60.83 1.98 27



Historial Predications of SNOs between METOP-C and LANDSAT-8
